Regional Weather Roundup
Issued by NWS

Home | Current Version | Previous Version | Text Only | Print | Product List | Glossary On
Versions: 1 2 3 4 5 6 7 8 9 10 11 12 13 14 15 16 17 18 19 20 21 22 23 24 25 26 27 28 29 30 31 32 33 34 35 36 37 38 39 40 41 42 43 44 45 46 47 48 49 50
000
ASUS44 KOUN 230400
RWROK

WEATHER ROUNDUP FOR OKLAHOMA
NATIONAL WEATHER SERVICE NORMAN OK
1100 PM CDT FRI AUG 22 2014

NOTE: "FAIR" INDICATES FEW OR NO CLOUDS BELOW 12,000 FEET WITH NO
      SIGNIFICANT WEATHER AND/OR OBSTRUCTIONS TO VISIBILITY.

OKZ001>007-009>012-014-015-017-230500-
NORTHWEST OKLAHOMA AND THE PANHANDLE

CITY           SKY/WX    TMP DP  RH WIND       PRES   REMARKS
GAGE           PTCLDY    82  55  39 S10       29.92R
$$

OKZ016-021>023-033>039-044-045-230500-
SOUTHWEST OKLAHOMA

CITY           SKY/WX    TMP DP  RH WIND       PRES   REMARKS
LAWTON/REGL    CLEAR     88  54  31 SE13      29.92R
LAWTON/FT SILL CLEAR     87  56  34 S14       29.91R
FREDERICK      CLEAR     85  46  25 S10       29.89R
CLINTON        CLEAR     86  46  24 S13       29.96R
HOBART         CLEAR     85  49  28 S14       29.93R
$$

OKZ018>020-024>031-230500-
CENTRAL OKLAHOMA

CITY           SKY/WX    TMP DP  RH WIND       PRES   REMARKS
OKLAHOMA CITY  CLEAR     84  60  44 S10       29.93R
OKC/WILEY POST CLEAR     86  61  42 S15       29.93R
OKC/TINKER AFB CLEAR     83  63  51 S12       29.94R
STILLWATER     CLEAR     86  64  47 S14       29.92R
GUTHRIE        CLEAR     85  64  49 S13       29.92R
$$

OKZ008-013-054>072-230500-
NORTHEAST OKLAHOMA

CITY           SKY/WX    TMP DP  RH WIND       PRES   REMARKS
TULSA          CLEAR     87  69  54 S13       29.91S HX  91
TULSA/JONES    CLEAR     86  69  56 S6        29.93R HX  90
PONCA CITY     CLEAR     87  67  51 S13       29.91R HX  90
BARTLESVILLE   CLEAR     82  68  62 S5        29.92S
MUSKOGEE       CLEAR     78  70  76 S6        29.95S
$$

OKZ032-040>043-046>053-073>077-230500-
SOUTH CENTRAL/SOUTHEAST OKLAHOMA

CITY           SKY/WX    TMP DP  RH WIND       PRES   REMARKS
MCALESTER      CLEAR     82  69  64 SE6       29.96F
$$




USA.gov is the U.S. government's official web portal to all federal, state and local government web resources and services.